Location: Newark
(47.4417°N, 1.1394°W)
Time: 08:17:15
(UTC+00:00)

Envisat - Pass Details

Date: 25 November 2019
Orbit: 764 x 766 km, 98.1° (Epoch: 08 December)

Event Time Altitude Azimuth Distance (km) Brightness Sun altitude
Rises 05:36:28 0° 29° (NNE) 3,242 6.5 -17.5°
Reaches altitude 10° 05:39:46 10° 52° (NE) 2,309 6.0 -17.0°
Maximum altitude 05:42:45 16° 88° (E) 1,944 6.2 -16.5°
Drops below altitude 10° 05:45:44 10° 124° (SE) 2,299 6.6 -16.0°
Sets 05:48:59 0° 147° (SSE) 3,219 7.0 -15.5°
